Williamsport, PA

6:19 AM EDT on May 27, 2018 (GMT -0400)
Williamsport Rgnl

Weather History for KIPT - May, 2013

Change the Weather History Date:

Thursday, May 2, 2013

  Actual Average Record
Temperature  
Mean Temperature 58 °F 56 °F  
Max Temperature 74 °F 67 °F 89 °F (2018)
Min Temperature 41 °F 44 °F 30 °F (1903)
Degree Days  
Heating Degree Days 7 10  
Month to date heating degree days 15 20  
Since 1 July heating degree days 5488 5775  
Cooling Degree Days 0 0  
Month to date cooling degree days 0 0  
Year to date cooling degree days 8 5  
Growing Degree Days 7 (Base 50)    
Moisture  
Dew Point 38 °F    
Average Humidity 55    
Maximum Humidity 82    
Minimum Humidity 27    
Precipitation  
Precipitation 0.00 in 0.11 in 1.36 in (2004)
Month to date precipitation 0.00 0.22  
Year to date precipitation 9.35 11.47  
Snow  
Snow 0.00 in 0.00 in 0.00 in (2002)
Month to date snowfall 0.0 0.0  
Since 1 July snowfall 32.7 36.0  
Snow Depth 0.00 in    
Sea Level Pressure  
Sea Level Pressure 30.38 in    
Wind  
Wind Speed 4 mph (ESE)    
Max Wind Speed 14 mph    
Max Gust Speed 18 mph    
Visibility 10 miles    
Events      
T = Trace of Precipitation, MM = Missing Value Source: NWS Daily Summary

Daily Weather History Graph

Daily Weather History Graph

Search for Another Location

Airport or City:

Astronomy

May. 02, 2013 Rise Set
Actual Time 6:03 AM EDT 8:06 PM EDT
Civil Twilight 5:33 AM EDT 8:36 PM EDT
Nautical Twilight 4:56 AM EDT 9:13 PM EDT
Astronomical Twilight 4:16 AM EDT 9:53 PM EDT
Moon 1:53 AM EDT (5/2) 12:49 PM EDT (5/2)
Length of Visible Light 15h 02m
Length of Day
14h 02m
Waning Gibbous, 48% of the Moon is Illuminated
May 2
Waning Gibbous
May 9
New
May 18
First Quarter
May 25
Full
May 31
Last Quarter

Hourly Weather History & Observations

Time (EDT) Temp. Windchill Dew Point Humidity Pressure Visibility Wind Dir Wind Speed Gust Speed Precip Events Conditions
12:54 AM 57.0 °F - 37.0 °F 47% 30.41 in 10.0 mi ENE 10.4 mph - N/A   Clear
1:54 AM 55.0 °F - 37.9 °F 53% 30.41 in 10.0 mi ENE 8.1 mph - N/A   Clear
2:54 AM 48.0 °F - 37.9 °F 68% 30.40 in 10.0 mi Calm Calm - N/A   Clear
3:54 AM 46.9 °F - 37.9 °F 71% 30.42 in 10.0 mi Calm Calm - N/A   Clear
4:54 AM 44.1 °F - 37.9 °F 79% 30.42 in 10.0 mi Calm Calm - N/A   Clear
5:54 AM 42.1 °F 40.2 °F 37.0 °F 82% 30.42 in 10.0 mi NNE 3.5 mph - N/A   Clear
6:54 AM 43.0 °F - 37.9 °F 82% 30.43 in 10.0 mi Calm Calm - N/A   Clear
7:54 AM 46.9 °F - 39.9 °F 77% 30.45 in 10.0 mi Calm Calm - N/A   Clear
8:54 AM 52.0 °F - 41.0 °F 66% 30.45 in 10.0 mi Calm Calm - N/A   Clear
9:54 AM 60.1 °F - 41.0 °F 49% 30.45 in 10.0 mi Calm Calm - N/A   Clear
10:54 AM 62.1 °F - 37.9 °F 41% 30.45 in 10.0 mi Calm Calm - N/A   Clear
11:54 AM 64.9 °F - 37.0 °F 36% 30.43 in 10.0 mi Calm Calm - N/A   Clear
12:54 PM 69.1 °F - 37.0 °F 31% 30.40 in 10.0 mi ESE 5.8 mph - N/A   Clear
1:54 PM 70.0 °F - 37.0 °F 30% 30.39 in 10.0 mi East 6.9 mph - N/A   Clear
2:54 PM 72.0 °F - 37.9 °F 29% 30.37 in 10.0 mi SE 6.9 mph - N/A   Clear
3:54 PM 73.9 °F - 39.0 °F 28% 30.34 in 10.0 mi South 6.9 mph - N/A   Clear
4:54 PM 73.9 °F - 37.0 °F 26% 30.32 in 10.0 mi SE 5.8 mph - N/A   Clear
5:54 PM 73.9 °F - 37.9 °F 27% 30.30 in 10.0 mi SSE 11.5 mph - N/A   Clear
6:54 PM 72.0 °F - 37.9 °F 29% 30.30 in 10.0 mi SE 9.2 mph - N/A   Clear
7:54 PM 71.1 °F - 37.0 °F 29% 30.30 in 10.0 mi SE 6.9 mph - N/A   Clear
8:54 PM 66.9 °F - 37.9 °F 34% 30.31 in 10.0 mi South 5.8 mph - N/A   Clear
9:54 PM 66.0 °F - 37.9 °F 36% 30.31 in 10.0 mi Variable 3.5 mph - N/A   Clear
10:54 PM 57.0 °F - 43.0 °F 59% 30.30 in 10.0 mi North 3.5 mph - N/A   Clear
11:54 PM 54.0 °F - 43.0 °F 66% 30.30 in 10.0 mi Calm Calm - N/A   Clear